| time (UTC) | temp F | wind direction | speed MPH | gust MPH | rain 1hr in | rain 24hr in | rain mn in | humidity % | barometer mb |
| 20260903172333 | 57 | 90 | 2.0 | 7.0 | 0.00 | 0.00 | 0.17 | 90 | 1001.9 |
| 20260903171828 | 57 | 45 | 4.0 | 4.0 | 0.00 | 0.00 | 0.17 | 90 | 1001.8 |
| 20260903171323 | 57 | 45 | 2.0 | 2.0 | 0.00 | 0.00 | 0.17 | 90 | 1002.1 |
| 20260903170818 | 57 | 45 | 2.0 | 5.0 | 0.00 | 0.00 | 0.17 | 89 | 1001.9 |
| 20260903170312 | 57 | 45 | 0.0 | 1.0 | 0.00 | 0.00 | 0.17 | 90 | 1002.0 |
| 20260903165259 | 57 | 45 | 0.0 | 3.0 | 0.00 | 0.00 | 0.17 | 89 | 1002.2 |
| 20260903164754 | 57 | 45 | 3.0 | 3.0 | 0.00 | 0.00 | 0.17 | 89 | 1002.1 |
| 20260903164249 | 57 | 45 | 1.0 | 4.0 | 0.00 | 0.00 | 0.17 | 89 | 1002.2 |
| 20260903163743 | 57 | 45 | 6.0 | 7.0 | 0.00 | 0.00 | 0.17 | 88 | 1002.3 |
| 20260903163238 | 57 | 13 | 7.0 | 11.0 | 0.00 | 0.00 | 0.17 | 88 | 1002.4 |
| 20260903162733 | 57 | 85 | 5.0 | 12.0 | 0.00 | 0.00 | 0.17 | 88 | 1002.3 |
| 20260903162228 | 57 | 54 | 3.0 | 4.0 | 0.00 | 0.00 | 0.16 | 88 | 1002.4 |
| 20260903161723 | 57 | 90 | 1.0 | 3.0 | 0.00 | 0.00 | 0.15 | 88 | 1002.6 |
| 20260903161217 | 57 | 0 | 5.0 | 5.0 | 0.00 | 0.00 | 0.14 | 88 | 1002.6 |
| 20260903160712 | 57 | 0 | 0.0 | 5.0 | 0.00 | 0.00 | 0.14 | 87 | 1002.6 |
| 20260903160207 | 57 | 270 | 1.0 | 2.0 | 0.00 | 0.00 | 0.12 | 87 | 1002.8 |
| 20260903155702 | 57 | 0 | 1.0 | 4.0 | 0.00 | 0.00 | 0.11 | 88 | 1002.8 |
| 20260903155157 | 57 | 90 | 3.0 | 6.0 | 0.00 | 0.00 | 0.11 | 86 | 1002.8 |
| 20260903154652 | 57 | 67 | 6.0 | 9.0 | 0.00 | 0.00 | 0.11 | 87 | 1002.8 |
| 20260903154146 | 57 | 45 | 3.0 | 11.0 | 0.00 | 0.00 | 0.09 | 86 | 1002.8 |
| 20260903153641 | 57 | 90 | 6.0 | 8.0 | 0.00 | 0.00 | 0.09 | 86 | 1002.9 |
| 20260903153136 | 57 | 90 | 4.0 | 8.0 | 0.00 | 0.00 | 0.08 | 85 | 1003.0 |
| 20260903152631 | 57 | 108 | 4.0 | 6.0 | 0.00 | 0.00 | 0.08 | 85 | 1003.2 |
| 20260903152126 | 57 | 117 | 3.0 | 6.0 | 0.00 | 0.00 | 0.08 | 85 | 1003.2 |
| 20260903151620 | 57 | 139 | 5.0 | 8.0 | 0.00 | 0.00 | 0.08 | 85 | 1003.1 |
| 20260903151115 | 57 | 99 | 6.0 | 10.0 | 0.00 | 0.00 | 0.07 | 85 | 1003.1 |
| 20260903150610 | 57 | 126 | 7.0 | 9.0 | 0.00 | 0.00 | 0.06 | 84 | 1003.1 |
| 20260903150105 | 57 | 94 | 4.0 | 7.0 | 0.00 | 0.00 | 0.06 | 84 | 1003.5 |
| 20260903145600 | 57 | 135 | 5.0 | 5.0 | 0.00 | 0.00 | 0.05 | 83 | 1003.6 |
| 20260903145054 | 57 | 135 | 3.0 | 6.0 | 0.00 | 0.00 | 0.05 | 83 | 1003.7 |
| 20260903144549 | 57 | 90 | 8.0 | 8.0 | 0.00 | 0.00 | 0.04 | 82 | 1003.5 |
| 20260903144044 | 57 | 90 | 6.0 | 7.0 | 0.00 | 0.00 | 0.04 | 82 | 1003.5 |
| 20260903143539 | 57 | 81 | 4.0 | 6.0 | 0.00 | 0.00 | 0.03 | 82 | 1003.6 |
| 20260903143034 | 57 | 90 | 4.0 | 6.0 | 0.00 | 0.00 | 0.02 | 81 | 1003.6 |
| 20260903142528 | 57 | 85 | 5.0 | 7.0 | 0.00 | 0.00 | 0.02 | 80 | 1003.8 |
| 20260903142023 | 58 | 135 | 4.0 | 7.0 | 0.00 | 0.00 | 0.01 | 80 | 1003.9 |
| 20260903141518 | 58 | 135 | 4.0 | 6.0 | 0.00 | 0.00 | 0.01 | 79 | 1004.1 |
| 20260903141013 | 58 | 135 | 5.0 | 8.0 | 0.00 | 0.00 | 0.01 | 78 | 1004.2 |
| 20260903140508 | 58 | 135 | 6.0 | 9.0 | 0.00 | 0.00 | 0.00 | 78 | 1004.2 |
| 20260903140002 | 59 | 162 | 4.0 | 7.0 | 0.00 | 0.00 | 0.00 | 77 | 1004.4 |
| 20260903135457 | 59 | 171 | 5.0 | 8.0 | 0.00 | 0.00 | 0.00 | 76 | 1004.5 |
| 20260903134952 | 59 | 180 | 7.0 | 8.0 | 0.00 | 0.00 | 0.00 | 77 | 1004.5 |
| 20260903134447 | 59 | 166 | 8.0 | 10.0 | 0.00 | 0.00 | 0.00 | 76 | 1004.5 |
| 20260903133942 | 60 | 135 | 6.0 | 10.0 | 0.00 | 0.00 | 0.00 | 75 | 1004.6 |
| 20260903133436 | 60 | 144 | 5.0 | 9.0 | 0.00 | 0.00 | 0.00 | 75 | 1004.6 |
| 20260903132932 | 60 | 180 | 6.0 | 10.0 | 0.00 | 0.00 | 0.00 | 75 | 1004.7 |
| 20260903132426 | 60 | 180 | 6.0 | 9.0 | 0.00 | 0.00 | 0.00 | 75 | 1004.7 |
| 20260903131921 | 60 | 166 | 7.0 | 9.0 | 0.00 | 0.00 | 0.00 | 74 | 1004.8 |
| 20260903131416 | 60 | 175 | 8.0 | 8.0 | 0.00 | 0.00 | 0.00 | 74 | 1004.9 |
| 20260903130910 | 60 | 180 | 5.0 | 10.0 | 0.00 | 0.00 | 0.00 | 74 | 1004.9 |
| 20260903130405 | 60 | 135 | 5.0 | 9.0 | 0.00 | 0.00 | 0.00 | 73 | 1005.0 |
| 20260903125900 | 60 | 135 | 10.0 | 10.0 | 0.00 | 0.00 | 0.00 | 73 | 1005.0 |
| 20260903125355 | 60 | 135 | 4.0 | 8.0 | 0.00 | 0.00 | 0.00 | 73 | 1004.9 |
| 20260903124850 | 60 | 189 | 6.0 | 7.0 | 0.00 | 0.00 | 0.00 | 73 | 1004.9 |
| 20260903124345 | 61 | 144 | 6.0 | 9.0 | 0.00 | 0.00 | 0.00 | 72 | 1005.0 |
| 20260903123839 | 61 | 135 | 7.0 | 8.0 | 0.00 | 0.00 | 0.00 | 72 | 1005.0 |
| 20260903123334 | 61 | 184 | 5.0 | 8.0 | 0.00 | 0.00 | 0.00 | 71 | 1005.0 |
| 20260903122829 | 61 | 135 | 10.0 | 11.0 | 0.00 | 0.00 | 0.00 | 72 | 1005.1 |
| 20260903122324 | 61 | 180 | 7.0 | 11.0 | 0.00 | 0.00 | 0.00 | 71 | 1005.2 |
| 20260903121818 | 61 | 157 | 8.0 | 11.0 | 0.00 | 0.00 | 0.00 | 71 | 1005.3 |
| 20260903121313 | 61 | 139 | 7.0 | 12.0 | 0.00 | 0.00 | 0.00 | 70 | 1005.3 |
| 20260903120808 | 61 | 135 | 11.0 | 12.0 | 0.00 | 0.00 | 0.00 | 71 | 1005.5 |
| 20260903120303 | 61 | 148 | 6.0 | 8.0 | 0.00 | 0.00 | 0.00 | 71 | 1005.6 |
| 20260903115758 | 61 | 180 | 9.0 | 11.0 | 0.00 | 0.00 | 0.00 | 71 | 1005.6 |
| 20260903115252 | 61 | 148 | 10.0 | 10.0 | 0.00 | 0.00 | 0.00 | 72 | 1005.7 |
| 20260903114747 | 60 | 180 | 5.0 | 7.0 | 0.00 | 0.00 | 0.00 | 72 | 1005.8 |
| 20260903114242 | 60 | 180 | 9.0 | 10.0 | 0.00 | 0.00 | 0.00 | 72 | 1005.8 |
| 20260903113737 | 60 | 153 | 8.0 | 9.0 | 0.00 | 0.00 | 0.00 | 72 | 1005.9 |
| 20260903113232 | 60 | 180 | 9.0 | 9.0 | 0.00 | 0.00 | 0.00 | 72 | 1006.0 |
| 20260903112727 | 60 | 180 | 4.0 | 7.0 | 0.00 | 0.00 | 0.00 | 72 | 1006.0 |
| 20260903112221 | 60 | 157 | 7.0 | 10.0 | 0.00 | 0.00 | 0.00 | 72 | 1005.9 |
| 20260903111716 | 60 | 144 | 6.0 | 9.0 | 0.00 | 0.00 | 0.00 | 72 | 1006.2 |
| 20260903111211 | 59 | 189 | 6.0 | 7.0 | 0.00 | 0.00 | 0.00 | 72 | 1006.1 |
| 20260903110706 | 59 | 175 | 5.0 | 9.0 | 0.00 | 0.00 | 0.00 | 71 | 1006.2 |
| 20260903110201 | 59 | 180 | 8.0 | 11.0 | 0.00 | 0.00 | 0.00 | 72 | 1006.3 |
| 20260903105655 | 59 | 175 | 7.0 | 9.0 | 0.00 | 0.00 | 0.00 | 71 | 1006.3 |
| 20260903105150 | 59 | 180 | 5.0 | 9.0 | 0.00 | 0.00 | 0.00 | 71 | 1006.3 |
| 20260903104645 | 59 | 135 | 3.0 | 9.0 | 0.00 | 0.00 | 0.00 | 70 | 1006.3 |
| 20260903104140 | 59 | 144 | 7.0 | 8.0 | 0.00 | 0.00 | 0.00 | 69 | 1006.4 |
| 20260903103635 | 59 | 198 | 6.0 | 7.0 | 0.00 | 0.00 | 0.00 | 69 | 1006.5 |
| 20260903103129 | 59 | 180 | 10.0 | 10.0 | 0.00 | 0.00 | 0.00 | 69 | 1006.6 |
| 20260903102624 | 59 | 180 | 6.0 | 8.0 | 0.00 | 0.00 | 0.00 | 69 | 1006.5 |
| 20260903102119 | 60 | 135 | 9.0 | 10.0 | 0.00 | 0.00 | 0.00 | 69 | 1006.5 |
| 20260903101614 | 60 | 144 | 6.0 | 9.0 | 0.00 | 0.00 | 0.00 | 69 | 1006.5 |
| 20260903101109 | 59 | 180 | 6.0 | 8.0 | 0.00 | 0.00 | 0.00 | 70 | 1006.7 |
| 20260903100603 | 59 | 216 | 6.0 | 6.0 | 0.00 | 0.00 | 0.00 | 70 | 1006.8 |
| 20260903100058 | 59 | 225 | 7.0 | 7.0 | 0.00 | 0.00 | 0.00 | 70 | 1006.9 |
| 20260903095553 | 59 | 180 | 7.0 | 9.0 | 0.00 | 0.00 | 0.00 | 69 | 1006.9 |
| 20260903095048 | 59 | 180 | 5.0 | 8.0 | 0.00 | 0.00 | 0.00 | 70 | 1007.0 |
| 20260903094543 | 59 | 198 | 7.0 | 9.0 | 0.00 | 0.00 | 0.00 | 70 | 1007.0 |
| 20260903094037 | 59 | 189 | 4.0 | 9.0 | 0.00 | 0.00 | 0.00 | 69 | 1007.1 |
| 20260903093532 | 59 | 216 | 7.0 | 10.0 | 0.00 | 0.00 | 0.00 | 70 | 1007.1 |
| 20260903093027 | 59 | 234 | 3.0 | 8.0 | 0.00 | 0.00 | 0.00 | 70 | 1007.2 |
| 20260903092522 | 58 | 175 | 3.0 | 10.0 | 0.00 | 0.00 | 0.00 | 70 | 1007.2 |
| 20260903092017 | 58 | 180 | 4.0 | 6.0 | 0.00 | 0.00 | 0.00 | 70 | 1007.3 |
| 20260903091511 | 58 | 225 | 5.0 | 6.0 | 0.00 | 0.00 | 0.00 | 70 | 1007.3 |
| 20260903091006 | 58 | 180 | 4.0 | 5.0 | 0.00 | 0.00 | 0.00 | 70 | 1007.4 |
| 20260903090502 | 58 | 225 | 3.0 | 6.0 | 0.00 | 0.00 | 0.00 | 69 | 1007.4 |
| 20260903085956 | 57 | 234 | 6.0 | 7.0 | 0.00 | 0.00 | 0.00 | 69 | 1007.5 |
| 20260903085451 | 57 | 225 | 5.0 | 7.0 | 0.00 | 0.00 | 0.00 | 69 | 1007.5 |
| 20260903084945 | 57 | 243 | 4.0 | 7.0 | 0.00 | 0.00 | 0.00 | 68 | 1007.4 |
| 20260903084440 | 57 | 283 | 3.0 | 7.0 | 0.00 | 0.00 | 0.00 | 68 | 1007.6 |
| 20260903083936 | 57 | 243 | 5.0 | 8.0 | 0.00 | 0.00 | 0.00 | 67 | 1007.6 |
| 20260903083430 | 57 | 229 | 6.0 | 8.0 | 0.00 | 0.00 | 0.00 | 67 | 1007.6 |
| 20260903082925 | 57 | 220 | 5.0 | 10.0 | 0.00 | 0.00 | 0.00 | 66 | 1007.7 |
| 20260903082419 | 58 | 243 | 4.0 | 10.0 | 0.00 | 0.00 | 0.00 | 66 | 1007.7 |
| 20260903081914 | 58 | 256 | 11.0 | 11.0 | 0.00 | 0.00 | 0.00 | 66 | 1007.7 |
| 20260903081410 | 58 | 238 | 4.0 | 8.0 | 0.00 | 0.00 | 0.02 | 66 | 1007.7 |
| 20260903080904 | 58 | 234 | 4.0 | 6.0 | 0.00 | 0.00 | 0.02 | 67 | 1007.9 |
| 20260903080359 | 58 | 247 | 2.0 | 5.0 | 0.00 | 0.00 | 0.02 | 67 | 1008.0 |
| 20260903075853 | 57 | 225 | 3.0 | 5.0 | 0.00 | 0.00 | 0.02 | 67 | 1008.0 |
| 20260903075348 | 57 | 207 | 4.0 | 5.0 | 0.00 | 0.00 | 0.02 | 67 | 1008.0 |
| 20260903074844 | 57 | 225 | 4.0 | 7.0 | 0.00 | 0.00 | 0.02 | 67 | 1008.0 |
| 20260903074338 | 57 | 225 | 5.0 | 9.0 | 0.00 | 0.00 | 0.02 | 67 | 1008.1 |
| 20260903073833 | 57 | 225 | 6.0 | 7.0 | 0.00 | 0.00 | 0.02 | 66 | 1008.1 |
| 20260903073328 | 57 | 229 | 5.0 | 9.0 | 0.00 | 0.00 | 0.02 | 66 | 1008.2 |
| 20260903072822 | 57 | 216 | 6.0 | 7.0 | 0.00 | 0.00 | 0.02 | 66 | 1008.3 |
| 20260903072318 | 57 | 243 | 4.0 | 9.0 | 0.00 | 0.00 | 0.02 | 66 | 1008.3 |
| 20260903071812 | 57 | 252 | 4.0 | 10.0 | 0.00 | 0.00 | 0.02 | 66 | 1008.1 |
| 20260903071307 | 57 | 225 | 6.0 | 11.0 | 0.00 | 0.00 | 0.02 | 66 | 1008.1 |
| 20260903070802 | 57 | 238 | 7.0 | 10.0 | 0.00 | 0.00 | 0.02 | 65 | 1008.0 |
| 20260903070256 | 57 | 225 | 11.0 | 11.0 | 0.00 | 0.00 | 0.02 | 64 | 1008.1 |
| 20260903065752 | 57 | 225 | 11.0 | 12.0 | 0.00 | 0.00 | 0.02 | 64 | 1008.0 |
| 20260903065246 | 57 | 234 | 8.0 | 12.0 | 0.00 | 0.00 | 0.02 | 63 | 1008.1 |
| 20260903064741 | 58 | 229 | 9.0 | 14.0 | 0.00 | 0.00 | 0.02 | 62 | 1008.1 |
| 20260903064236 | 58 | 261 | 8.0 | 14.0 | 0.00 | 0.00 | 0.02 | 62 | 1008.1 |
| 20260903063730 | 59 | 270 | 8.0 | 14.0 | 0.00 | 0.00 | 0.02 | 62 | 1008.1 |
| 20260903063226 | 59 | 229 | 7.0 | 15.0 | 0.00 | 0.00 | 0.02 | 62 | 1008.2 |
| 20260903062720 | 60 | 238 | 8.0 | 12.0 | 0.00 | 0.00 | 0.02 | 62 | 1008.3 |
| 20260903062215 | 60 | 270 | 12.0 | 13.0 | 0.00 | 0.00 | 0.02 | 64 | 1008.2 |
| 20260903061710 | 59 | 225 | 6.0 | 14.0 | 0.00 | 0.00 | 0.02 | 64 | 1008.3 |
| 20260903061204 | 59 | 256 | 8.0 | 13.0 | 0.00 | 0.00 | 0.02 | 65 | 1008.2 |
| 20260903060700 | 58 | 234 | 7.0 | 15.0 | 0.00 | 0.00 | 0.02 | 64 | 1008.3 |
| 20260903060154 | 58 | 225 | 8.0 | 12.0 | 0.00 | 0.00 | 0.02 | 66 | 1008.3 |
| 20260903055649 | 57 | 225 | 12.0 | 12.0 | 0.00 | 0.00 | 0.02 | 68 | 1008.3 |
| 20260903055144 | 56 | 216 | 4.0 | 12.0 | 0.00 | 0.00 | 0.02 | 68 | 1008.4 |
| 20260903054638 | 55 | 225 | 11.0 | 15.0 | 0.00 | 0.00 | 0.02 | 68 | 1008.5 |
| 20260903054134 | 55 | 225 | 7.0 | 9.0 | 0.00 | 0.00 | 0.02 | 68 | 1008.5 |
| 20260903053628 | 55 | 252 | 9.0 | 11.0 | 0.00 | 0.00 | 0.02 | 69 | 1008.5 |
| 20260903053123 | 55 | 238 | 11.0 | 11.0 | 0.00 | 0.00 | 0.02 | 70 | 1008.4 |
| 20260903052618 | 54 | 216 | 9.0 | 9.0 | 0.00 | 0.00 | 0.02 | 71 | 1008.5 |
| 20260903052112 | 53 | 225 | 5.0 | 8.0 | 0.00 | 0.00 | 0.02 | 71 | 1008.5 |
| 20260903051608 | 52 | 216 | 5.0 | 7.0 | 0.00 | 0.00 | 0.02 | 71 | 1008.6 |
| 20260903051102 | 52 | 184 | 4.0 | 6.0 | 0.00 | 0.00 | 0.02 | 70 | 1008.6 |
| 20260903050557 | 51 | 180 | 4.0 | 5.0 | 0.00 | 0.00 | 0.02 | 70 | 1008.7 |
| 20260903050052 | 51 | 180 | 3.0 | 5.0 | 0.00 | 0.00 | 0.02 | 69 | 1008.8 |
| 20260903045546 | 51 | 175 | 3.0 | 4.0 | 0.00 | 0.00 | 0.02 | 70 | 1008.7 |
| 20260903045042 | 50 | 180 | 3.0 | 5.0 | 0.00 | 0.00 | 0.02 | 69 | 1008.7 |
| 20260903044536 | 50 | 171 | 4.0 | 5.0 | 0.00 | 0.00 | 0.02 | 68 | 1008.7 |
| 20260903044031 | 50 | 175 | 3.0 | 3.0 | 0.00 | 0.00 | 0.02 | 68 | 1008.7 |
| 20260903043526 | 49 | 225 | 2.0 | 4.0 | 0.00 | 0.00 | 0.02 | 67 | 1008.8 |
| 20260903043020 | 50 | 180 | 1.0 | 5.0 | 0.00 | 0.00 | 0.02 | 67 | 1008.8 |
| 20260903042516 | 50 | 180 | 1.0 | 3.0 | 0.00 | 0.00 | 0.02 | 66 | 1008.8 |
| 20260903042010 | 50 | 189 | 3.0 | 6.0 | 0.00 | 0.00 | 0.02 | 66 | 1008.8 |
| 20260903041505 | 50 | 198 | 4.0 | 7.0 | 0.00 | 0.00 | 0.02 | 66 | 1008.9 |
| 20260903041000 | 50 | 220 | 3.0 | 5.0 | 0.00 | 0.00 | 0.02 | 66 | 1008.9 |
| 20260903040454 | 50 | 193 | 5.0 | 10.0 | 0.00 | 0.00 | 0.02 | 65 | 1008.9 |
| 20260903035950 | 50 | 220 | 3.0 | 5.0 | 0.00 | 0.00 | 0.02 | 65 | 1008.9 |
| 20260903035444 | 50 | 225 | 5.0 | 7.0 | 0.00 | 0.00 | 0.02 | 64 | 1009.0 |
| 20260903034939 | 50 | 225 | 4.0 | 9.0 | 0.00 | 0.00 | 0.02 | 64 | 1009.1 |
| 20260903034434 | 51 | 216 | 4.0 | 8.0 | 0.00 | 0.00 | 0.02 | 64 | 1008.9 |
| 20260903033928 | 51 | 225 | 5.0 | 6.0 | 0.00 | 0.00 | 0.02 | 63 | 1009.2 |
| 20260903033424 | 51 | 225 | 4.0 | 6.0 | 0.00 | 0.00 | 0.02 | 63 | 1009.2 |
| 20260903032918 | 51 | 225 | 3.0 | 6.0 | 0.00 | 0.00 | 0.02 | 62 | 1009.1 |
| 20260903032413 | 52 | 225 | 5.0 | 8.0 | 0.00 | 0.00 | 0.02 | 62 | 1009.2 |
| 20260903031908 | 52 | 225 | 5.0 | 9.0 | 0.00 | 0.00 | 0.02 | 61 | 1009.2 |
| 20260903031402 | 52 | 225 | 5.0 | 10.0 | 0.00 | 0.00 | 0.02 | 61 | 1009.2 |
| 20260903030858 | 52 | 225 | 6.0 | 7.0 | 0.00 | 0.00 | 0.02 | 61 | 1009.2 |
| 20260903030352 | 53 | 252 | 4.0 | 9.0 | 0.00 | 0.00 | 0.02 | 61 | 1009.2 |
| 20260903025847 | 53 | 225 | 6.0 | 14.0 | 0.00 | 0.00 | 0.02 | 60 | 1009.3 |
| 20260903025342 | 53 | 225 | 12.0 | 15.0 | 0.00 | 0.00 | 0.02 | 60 | 1009.3 |
| 20260903024836 | 53 | 225 | 5.0 | 7.0 | 0.00 | 0.00 | 0.02 | 60 | 1009.3 |
| 20260903024332 | 53 | 243 | 8.0 | 12.0 | 0.00 | 0.00 | 0.02 | 60 | 1009.4 |
| 20260903023826 | 54 | 234 | 10.0 | 17.0 | 0.00 | 0.00 | 0.02 | 60 | 1009.3 |
| 20260903023321 | 54 | 261 | 9.0 | 22.0 | 0.00 | 0.00 | 0.02 | 60 | 1009.3 |
| 20260903022816 | 54 | 234 | 6.0 | 13.0 | 0.00 | 0.00 | 0.02 | 60 | 1009.3 |
| 20260903022311 | 54 | 247 | 9.0 | 13.0 | 0.00 | 0.00 | 0.02 | 60 | 1009.3 |
| 20260903021806 | 54 | 270 | 6.0 | 10.0 | 0.00 | 0.00 | 0.02 | 60 | 1009.4 |
| 20260903021300 | 54 | 240 | 6.0 | 10.0 | 0.00 | 0.00 | 0.02 | 60 | 1009.5 |
| 20260903020755 | 54 | 270 | 15.0 | 15.0 | 0.00 | 0.00 | 0.02 | 59 | 1009.5 |
| 20260903020250 | 54 | 261 | 7.0 | 15.0 | 0.00 | 0.00 | 0.02 | 60 | 1009.5 |
| 20260903015744 | 54 | 256 | 9.0 | 13.0 | 0.00 | 0.00 | 0.02 | 59 | 1009.5 |
| 20260903015240 | 54 | 234 | 10.0 | 12.0 | 0.00 | 0.00 | 0.02 | 60 | 1009.5 |
| 20260903014734 | 54 | 238 | 8.0 | 16.0 | 0.00 | 0.00 | 0.02 | 59 | 1009.5 |
| 20260903014229 | 54 | 256 | 9.0 | 15.0 | 0.00 | 0.00 | 0.02 | 59 | 1009.6 |
| 20260903013724 | 54 | 265 | 12.0 | 17.0 | 0.00 | 0.00 | 0.02 | 59 | 1009.6 |
| 20260903013218 | 54 | 225 | 8.0 | 19.0 | 0.00 | 0.00 | 0.02 | 60 | 1009.6 |
| 20260903012714 | 54 | 229 | 18.0 | 19.0 | 0.00 | 0.00 | 0.02 | 59 | 1009.7 |
| 20260903012208 | 54 | 319 | 17.0 | 22.0 | 0.00 | 0.00 | 0.02 | 59 | 1009.8 |
| 20260903011703 | 54 | 261 | 8.0 | 27.0 | 0.00 | 0.00 | 0.02 | 59 | 1009.8 |
| 20260903011158 | 54 | 189 | 11.0 | 27.0 | 0.00 | 0.00 | 0.02 | 58 | 1009.8 |
| 20260903010652 | 55 | 243 | 16.0 | 24.0 | 0.00 | 0.00 | 0.02 | 59 | 1009.7 |
| 20260903010148 | 55 | 238 | 18.0 | 24.0 | 0.00 | 0.00 | 0.02 | 58 | 1009.7 |
| 20260903005642 | 55 | 220 | 14.0 | 27.0 | 0.00 | 0.00 | 0.02 | 58 | 1009.8 |
| 20260903005137 | 55 | 252 | 5.0 | 24.0 | 0.00 | 0.00 | 0.02 | 58 | 1009.8 |
| 20260903004632 | 55 | 261 | 10.0 | 27.0 | 0.00 | 0.00 | 0.02 | 58 | 1009.8 |
| 20260903004126 | 55 | 270 | 25.0 | 25.0 | 0.00 | 0.00 | 0.02 | 59 | 1009.9 |
| 20260903003622 | 55 | 315 | 12.0 | 27.0 | 0.00 | 0.00 | 0.02 | 59 | 1009.9 |
| 20260903003116 | 55 | 220 | 16.0 | 24.0 | 0.00 | 0.00 | 0.02 | 59 | 1009.7 |
| 20260903002611 | 55 | 270 | 12.0 | 23.0 | 0.00 | 0.00 | 0.02 | 59 | 1009.8 |
| 20260903002106 | 55 | 241 | 15.0 | 17.0 | 0.00 | 0.00 | 0.02 | 58 | 1009.8 |
| 20260903001601 | 55 | 247 | 8.0 | 22.0 | 0.00 | 0.00 | 0.02 | 58 | 1009.7 |
| 20260903001056 | 55 | 243 | 7.0 | 22.0 | 0.00 | 0.00 | 0.02 | 60 | 1009.9 |
| 20260903000550 | 55 | 252 | 8.0 | 14.0 | 0.00 | 0.00 | 0.02 | 60 | 1009.7 |
| 20260903000045 | 55 | 270 | 16.0 | 20.0 | 0.00 | 0.00 | 0.02 | 60 | 1009.8 |
| 20260902235540 | 55 | 252 | 17.0 | 25.0 | 0.00 | 0.00 | 0.02 | 59 | 1009.9 |
| 20260902235035 | 55 | 265 | 19.0 | 26.0 | 0.00 | 0.00 | 0.02 | 60 | 1009.9 |
| 20260902234530 | 55 | 225 | 11.0 | 21.0 | 0.00 | 0.00 | 0.02 | 60 | 1009.9 |
| 20260902234024 | 55 | 303 | 9.0 | 15.0 | 0.00 | 0.00 | 0.02 | 60 | 1009.9 |
| 20260902233519 | 55 | 243 | 8.0 | 19.0 | 0.00 | 0.00 | 0.02 | 61 | 1010.1 |
| 20260902233014 | 55 | 288 | 10.0 | 15.0 | 0.00 | 0.00 | 0.02 | 60 | 1010.0 |
| 20260902232509 | 55 | 247 | 15.0 | 21.0 | 0.00 | 0.00 | 0.02 | 60 | 1010.1 |
| 20260902232004 | 55 | 270 | 11.0 | 16.0 | 0.00 | 0.00 | 0.02 | 60 | 1010.0 |
| 20260902231458 | 55 | 261 | 8.0 | 19.0 | 0.00 | 0.00 | 0.02 | 61 | 1010.1 |
| 20260902230953 | 55 | 258 | 11.0 | 18.0 | 0.00 | 0.00 | 0.02 | 62 | 1010.0 |
| 20260902230448 | 55 | 225 | 12.0 | 22.0 | 0.00 | 0.00 | 0.02 | 61 | 1009.9 |
| 20260902225943 | 55 | 274 | 5.0 | 14.0 | 0.00 | 0.00 | 0.02 | 62 | 1010.1 |
| 20260902225438 | 55 | 265 | 6.0 | 14.0 | 0.00 | 0.00 | 0.02 | 62 | 1010.1 |
| 20260902224932 | 55 | 243 | 14.0 | 15.0 | 0.00 | 0.00 | 0.02 | 63 | 1010.1 |
| 20260902224427 | 55 | 265 | 6.0 | 13.0 | 0.00 | 0.00 | 0.02 | 63 | 1010.2 |
| 20260902223922 | 55 | 247 | 15.0 | 19.0 | 0.00 | 0.00 | 0.02 | 63 | 1010.1 |
| 20260902223417 | 55 | 229 | 4.0 | 14.0 | 0.00 | 0.00 | 0.02 | 63 | 1010.2 |
| 20260902222912 | 55 | 297 | 12.0 | 14.0 | 0.00 | 0.00 | 0.02 | 63 | 1010.1 |
| 20260902222406 | 55 | 238 | 5.0 | 15.0 | 0.00 | 0.00 | 0.02 | 63 | 1010.2 |
| 20260902221901 | 55 | 281 | 5.0 | 12.0 | 0.00 | 0.00 | 0.02 | 63 | 1010.2 |
| 20260902221356 | 55 | 297 | 6.0 | 13.0 | 0.00 | 0.00 | 0.02 | 63 | 1010.2 |
| 20260902220343 | 55 | 274 | 8.0 | 10.0 | 0.00 | 0.00 | 0.02 | 63 | 1010.3 |
| 20260902215837 | 56 | 265 | 11.0 | 13.0 | 0.00 | 0.00 | 0.02 | 62 | 1010.2 |
| 20260902215332 | 56 | 303 | 5.0 | 18.0 | 0.00 | 0.00 | 0.02 | 62 | 1010.2 |
| 20260902214827 | 56 | 265 | 11.0 | 21.0 | 0.00 | 0.00 | 0.02 | 62 | 1010.2 |
| 20260902214322 | 56 | 256 | 13.0 | 17.0 | 0.00 | 0.00 | 0.02 | 62 | 1010.2 |
| 20260902213817 | 55 | 247 | 19.0 | 19.0 | 0.00 | 0.00 | 0.02 | 63 | 1010.2 |
| 20260902213311 | 55 | 225 | 20.0 | 20.0 | 0.00 | 0.00 | 0.02 | 62 | 1010.0 |
| 20260902212806 | 56 | 189 | 8.0 | 12.0 | 0.00 | 0.00 | 0.02 | 62 | 1010.2 |
| 20260902212301 | 56 | 243 | 17.0 | 17.0 | 0.00 | 0.00 | 0.02 | 62 | 1010.1 |
| 20260902211756 | 56 | 234 | 8.0 | 20.0 | 0.00 | 0.00 | 0.02 | 61 | 1010.3 |
| 20260902211251 | 56 | 256 | 6.0 | 19.0 | 0.00 | 0.00 | 0.02 | 62 | 1010.3 |
| 20260902210745 | 56 | 261 | 18.0 | 24.0 | 0.00 | 0.00 | 0.02 | 62 | 1010.2 |
| 20260902210240 | 56 | 270 | 12.0 | 19.0 | 0.00 | 0.00 | 0.02 | 62 | 1010.3 |
| 20260902205735 | 56 | 252 | 13.0 | 23.0 | 0.00 | 0.00 | 0.02 | 62 | 1010.1 |
| 20260902205230 | 56 | 234 | 12.0 | 30.0 | 0.00 | 0.00 | 0.02 | 62 | 1010.2 |
| 20260902204725 | 56 | 252 | 14.0 | 22.0 | 0.00 | 0.00 | 0.02 | 64 | 1010.2 |
| 20260902204219 | 56 | 261 | 9.0 | 29.0 | 0.00 | 0.00 | 0.02 | 64 | 1010.1 |
| 20260902203714 | 56 | 270 | 6.0 | 13.0 | 0.00 | 0.00 | 0.02 | 63 | 1010.2 |
| 20260902203209 | 56 | 270 | 14.0 | 24.0 | 0.00 | 0.00 | 0.02 | 64 | 1010.1 |
| 20260902202704 | 56 | 247 | 24.0 | 24.0 | 0.00 | 0.00 | 0.02 | 63 | 1010.2 |
| 20260902202159 | 56 | 225 | 14.0 | 24.0 | 0.00 | 0.00 | 0.02 | 64 | 1010.2 |
| 20260902201653 | 56 | 225 | 16.0 | 20.0 | 0.00 | 0.00 | 0.02 | 64 | 1010.1 |
| 20260902201148 | 56 | 252 | 10.0 | 22.0 | 0.00 | 0.00 | 0.02 | 64 | 1010.2 |
| 20260902200643 | 56 | 207 | 12.0 | 19.0 | 0.00 | 0.00 | 0.02 | 63 | 1010.2 |
| 20260902200138 | 56 | 225 | 4.0 | 30.0 | 0.00 | 0.00 | 0.02 | 64 | 1010.2 |
| 20260902195633 | 56 | 225 | 21.0 | 23.0 | 0.00 | 0.00 | 0.02 | 64 | 1010.1 |
| 20260902195127 | 56 | 297 | 15.0 | 22.0 | 0.00 | 0.00 | 0.02 | 64 | 1010.4 |
| 20260902194622 | 57 | 256 | 17.0 | 18.0 | 0.00 | 0.00 | 0.02 | 64 | 1010.2 |
| 20260902194117 | 57 | 256 | 12.0 | 20.0 | 0.00 | 0.00 | 0.02 | 64 | 1010.3 |
| 20260902193612 | 57 | 225 | 9.0 | 18.0 | 0.00 | 0.00 | 0.02 | 64 | 1010.3 |
| 20260902193107 | 57 | 220 | 6.0 | 16.0 | 0.00 | 0.00 | 0.02 | 64 | 1010.2 |
| 20260902192601 | 57 | 265 | 12.0 | 17.0 | 0.00 | 0.00 | 0.02 | 63 | 1010.1 |
| 20260902192056 | 57 | 247 | 7.0 | 21.0 | 0.00 | 0.00 | 0.02 | 63 | 1010.2 |
| 20260902191551 | 57 | 225 | 4.0 | 15.0 | 0.00 | 0.00 | 0.02 | 63 | 1010.2 |
| 20260902191046 | 57 | 265 | 6.0 | 18.0 | 0.00 | 0.00 | 0.02 | 63 | 1010.1 |
| 20260902190541 | 57 | 261 | 15.0 | 19.0 | 0.00 | 0.00 | 0.02 | 62 | 1010.1 |
| 20260902190035 | 57 | 234 | 7.0 | 12.0 | 0.00 | 0.00 | 0.02 | 62 | 1010.1 |
| 20260902185530 | 57 | 238 | 18.0 | 18.0 | 0.00 | 0.00 | 0.02 | 62 | 1010.0 |
| 20260902185025 | 57 | 225 | 13.0 | 19.0 | 0.00 | 0.00 | 0.02 | 63 | 1010.0 |
| 20260902184520 | 57 | 256 | 13.0 | 16.0 | 0.00 | 0.00 | 0.02 | 62 | 1009.9 |
| 20260902184015 | 57 | 274 | 9.0 | 15.0 | 0.00 | 0.00 | 0.02 | 63 | 1010.0 |
| 20260902183509 | 57 | 261 | 13.0 | 20.0 | 0.00 | 0.00 | 0.02 | 62 | 1009.9 |
| 20260902183004 | 57 | 225 | 10.0 | 15.0 | 0.00 | 0.00 | 0.02 | 63 | 1009.9 |
| 20260902182459 | 58 | 256 | 7.0 | 12.0 | 0.00 | 0.00 | 0.02 | 63 | 1009.8 |
| 20260902181954 | 58 | 225 | 11.0 | 16.0 | 0.00 | 0.00 | 0.02 | 62 | 1009.8 |
| 20260902181449 | 58 | 247 | 9.0 | 12.0 | 0.00 | 0.00 | 0.02 | 63 | 1009.8 |
| 20260902180943 | 58 | 229 | 9.0 | 13.0 | 0.00 | 0.00 | 0.02 | 63 | 1009.7 |
| 20260902180438 | 58 | 225 | 6.0 | 10.0 | 0.00 | 0.00 | 0.02 | 62 | 1009.8 |
| 20260902175933 | 58 | 270 | 7.0 | 11.0 | 0.00 | 0.00 | 0.02 | 63 | 1009.7 |
| 20260902175428 | 58 | 243 | 15.0 | 15.0 | 0.00 | 0.00 | 0.02 | 63 | 1009.7 |
| 20260902174923 | 58 | 229 | 9.0 | 14.0 | 0.00 | 0.00 | 0.02 | 63 | 1009.7 |
| 20260902174417 | 58 | 234 | 5.0 | 10.0 | 0.00 | 0.00 | 0.02 | 63 | 1009.7 |
| 20260902173912 | 58 | 247 | 7.0 | 7.0 | 0.00 | 0.00 | 0.02 | 63 | 1009.7 |
| 20260902173407 | 59 | 90 | 0.0 | 9.0 | 0.00 | 0.00 | 0.02 | 63 | 1009.8 |
| 20260902172902 | 59 | 261 | 11.0 | 11.0 | 0.00 | 0.00 | 0.02 | 63 | 1009.7 |